Time,TemperatureF,DewpointF,PressureIn,WindDirection,WindDirectionDegrees,WindSpeedMPH,WindSpeedGustMPH,Humidity,HourlyPrecipIn,Conditions,Clouds,dailyrainin,SoftwareType,DateUTC
2013-07-01 00:01:00,74.1,73.2,29.97,NW,313,0.0,0.0,97,0.00,,,0.00,WUHU216DAVISWMX,2013-07-01 04:01:00,
2013-07-01 00:06:00,74.0,73.1,29.98,NW,313,0.0,0.0,97,0.00,,,0.00,WUHU216DAVISWMX,2013-07-01 04:06:00,
2013-07-01 00:11:00,74.1,73.2,29.98,NW,312,0.0,0.0,97,0.00,,,0.00,WUHU216DAVISWMX,2013-07-01 04:11:00,
2013-07-01 00:16:00,74.1,73.2,29.98,NW,313,0.0,0.0,97,0.00,,,0.00,WUHU216DAVISWMX,2013-07-01 04:16:00,
2013-07-01 00:21:00,74.0,73.1,29.98,NW,313,0.0,0.0,97,0.00,,,0.00,WUHU216DAVISWMX,2013-07-01 04:21:00,
2013-07-01 00:26:00,73.9,73.0,29.98,NW,313,0.0,2.0,97,0.00,,,0.00,WUHU216DAVISWMX,2013-07-01 04:26:00,
2013-07-01 00:31:00,74.1,73.2,29.99,NW,313,0.0,2.0,97,0.00,,,0.00,WUHU216DAVISWMX,2013-07-01 04:31:00,
2013-07-01 00:36:00,74.1,73.5,29.98,NW,313,0.0,2.0,98,0.00,,,0.00,WUHU216DAVISWMX,2013-07-01 04:36:00,
2013-07-01 00:41:00,73.8,72.9,29.98,NW,313,0.0,0.0,97,0.00,,,0.00,WUHU216DAVISWMX,2013-07-01 04:41:00,
2013-07-01 00:46:00,74.0,73.4,29.98,NW,312,0.0,0.0,98,0.00,,,0.00,WUHU216DAVISWMX,2013-07-01 04:46:00,
2013-07-01 00:51:00,74.0,73.4,29.98,NW,313,0.0,0.0,98,0.00,,,0.00,WUHU216DAVISWMX,2013-07-01 04:51:00,
2013-07-01 00:56:00,74.0,73.1,29.99,NW,313,0.0,0.0,97,0.00,,,0.00,WUHU216DAVISWMX,2013-07-01 04:56:00,
2013-07-01 01:01:00,74.0,73.4,29.99,NW,313,0.0,0.0,98,0.00,,,0.00,WUHU216DAVISWMX,2013-07-01 05:01:00,
2013-07-01 01:06:00,74.0,73.1,29.99,NW,313,0.0,0.0,97,0.00,,,0.00,WUHU216DAVISWMX,2013-07-01 05:06:00,
2013-07-01 01:11:00,74.0,73.1,29.99,NW,313,0.0,0.0,97,0.00,,,0.00,WUHU216DAVISWMX,2013-07-01 05:11:00,
2013-07-01 01:16:00,74.0,73.1,29.99,NW,313,0.0,0.0,97,0.00,,,0.00,WUHU216DAVISWMX,2013-07-01 05:16:00,
2013-07-01 01:21:00,74.0,73.1,29.99,NW,313,0.0,0.0,97,0.00,,,0.00,WUHU216DAVISWMX,2013-07-01 05:21:00,
2013-07-01 01:26:00,73.9,73.0,29.99,NW,313,0.0,0.0,97,0.00,,,0.00,WUHU216DAVISWMX,2013-07-01 05:26:00,
2013-07-01 01:31:00,73.9,73.0,29.99,NW,312,0.0,0.0,97,0.00,,,0.00,WUHU216DAVISWMX,2013-07-01 05:31:00,
2013-07-01 01:36:00,74.0,73.1,29.99,NW,313,0.0,0.0,97,0.00,,,0.00,WUHU216DAVISWMX,2013-07-01 05:36:00,
2013-07-01 01:41:00,73.8,73.2,29.99,NW,312,0.0,0.0,98,0.00,,,0.00,WUHU216DAVISWMX,2013-07-01 05:41:00,
2013-07-01 01:46:00,73.7,73.1,29.99,NW,312,0.0,0.0,98,0.00,,,0.00,WUHU216DAVISWMX,2013-07-01 05:46:00,
2013-07-01 01:51:00,73.8,73.2,29.99,NW,313,0.0,0.0,98,0.00,,,0.00,WUHU216DAVISWMX,2013-07-01 05:51:00,
2013-07-01 01:56:00,73.8,73.2,29.99,NW,313,0.0,0.0,98,0.00,,,0.00,WUHU216DAVISWMX,2013-07-01 05:56:00,
2013-07-01 02:01:00,73.6,73.0,29.99,NW,313,0.0,0.0,98,0.00,,,0.00,WUHU216DAVISWMX,2013-07-01 06:01:00,
2013-07-01 02:06:00,73.8,73.2,29.99,NW,312,0.0,2.0,98,0.00,,,0.00,WUHU216DAVISWMX,2013-07-01 06:06:00,
2013-07-01 02:11:00,73.6,73.0,29.99,NW,312,0.0,2.0,98,0.00,,,0.00,WUHU216DAVISWMX,2013-07-01 06:11:00,
2013-07-01 02:16:00,73.8,73.2,29.99,NW,313,0.0,2.0,98,0.00,,,0.00,WUHU216DAVISWMX,2013-07-01 06:16:00,
2013-07-01 02:21:00,73.5,72.9,29.99,NW,313,0.0,0.0,98,0.00,,,0.00,WUHU216DAVISWMX,2013-07-01 06:21:00,
2013-07-01 02:26:00,73.4,72.8,29.99,NW,313,0.0,0.0,98,0.00,,,0.00,WUHU216DAVISWMX,2013-07-01 06:26:00,
2013-07-01 02:31:00,73.7,73.1,29.99,NW,313,0.0,0.0,98,0.00,,,0.00,WUHU216DAVISWMX,2013-07-01 06:31:00,
2013-07-01 02:36:00,73.8,73.2,29.99,NW,312,0.0,0.0,98,0.00,,,0.00,WUHU216DAVISWMX,2013-07-01 06:36:00,
2013-07-01 02:41:00,73.5,72.9,29.99,NW,313,0.0,0.0,98,0.00,,,0.00,WUHU216DAVISWMX,2013-07-01 06:41:00,
2013-07-01 02:46:00,73.5,72.9,29.99,NW,312,0.0,0.0,98,0.00,,,0.00,WUHU216DAVISWMX,2013-07-01 06:46:00,
2013-07-01 02:51:00,73.7,73.4,29.99,NW,312,0.0,2.0,99,0.00,,,0.00,WUHU216DAVISWMX,2013-07-01 06:51:00,
2013-07-01 02:56:00,73.7,73.1,29.99,NW,313,0.0,2.0,98,0.00,,,0.00,WUHU216DAVISWMX,2013-07-01 06:56:00,
2013-07-01 03:01:00,73.6,73.3,29.99,NW,313,0.0,0.0,99,0.00,,,0.00,WUHU216DAVISWMX,2013-07-01 07:01:00,
2013-07-01 03:06:00,73.4,72.8,29.99,NW,313,1.0,1.0,98,0.00,,,0.00,WUHU216DAVISWMX,2013-07-01 07:06:00,
2013-07-01 03:12:00,73.5,73.2,29.99,NW,313,0.0,1.0,99,0.00,,,0.00,WUHU216DAVISWMX,2013-07-01 07:12:00,
2013-07-01 03:17:00,73.5,72.9,29.99,NW,313,0.0,0.0,98,0.00,,,0.00,WUHU216DAVISWMX,2013-07-01 07:17:00,
2013-07-01 03:22:00,73.1,72.5,29.99,NW,313,0.0,0.0,98,0.00,,,0.00,WUHU216DAVISWMX,2013-07-01 07:22:00,
2013-07-01 03:27:00,73.1,72.8,29.99,NW,313,0.0,0.0,99,0.00,,,0.00,WUHU216DAVISWMX,2013-07-01 07:27:00,
2013-07-01 03:32:00,73.0,72.7,29.99,NW,312,0.0,0.0,99,0.00,,,0.00,WUHU216DAVISWMX,2013-07-01 07:32:00,
2013-07-01 03:37:00,73.2,72.9,29.99,NW,313,0.0,0.0,99,0.00,,,0.00,WUHU216DAVISWMX,2013-07-01 07:37:00,
2013-07-01 03:47:00,73.1,73.1,29.99,NW,312,0.0,0.0,100,0.00,,,0.00,WUHU216DAVISWMX,2013-07-01 07:47:00,
2013-07-01 03:52:00,73.2,73.2,29.99,NW,313,0.0,0.0,100,0.00,,,0.00,WUHU216DAVISWMX,2013-07-01 07:52:00,
2013-07-01 03:57:00,72.9,72.6,29.99,NW,313,0.0,0.0,99,0.00,,,0.00,WUHU216DAVISWMX,2013-07-01 07:57:00,
2013-07-01 04:02:00,73.0,73.0,29.99,NW,313,0.0,0.0,100,0.00,,,0.00,WUHU216DAVISWMX,2013-07-01 08:02:00,
2013-07-01 04:07:00,72.9,72.6,29.99,NW,313,0.0,0.0,99,0.00,,,0.00,WUHU216DAVISWMX,2013-07-01 08:07:00,
2013-07-01 04:12:00,73.0,73.0,29.99,NW,313,0.0,0.0,100,0.00,,,0.00,WUHU216DAVISWMX,2013-07-01 08:12:00,
2013-07-01 04:17:00,72.8,72.5,29.99,NW,313,0.0,0.0,99,0.00,,,0.00,WUHU216DAVISWMX,2013-07-01 08:17:00,
2013-07-01 04:22:00,72.8,72.8,29.99,NW,313,0.0,0.0,100,0.00,,,0.00,WUHU216DAVISWMX,2013-07-01 08:22:00,
2013-07-01 04:27:00,72.7,72.7,29.99,NW,312,0.0,0.0,100,0.00,,,0.00,WUHU216DAVISWMX,2013-07-01 08:27:00,
2013-07-01 04:32:00,72.7,72.7,29.99,NW,312,0.0,0.0,100,0.00,,,0.00,WUHU216DAVISWMX,2013-07-01 08:32:00,
2013-07-01 04:37:00,72.5,72.5,29.99,NW,313,0.0,0.0,100,0.00,,,0.00,WUHU216DAVISWMX,2013-07-01 08:37:00,
2013-07-01 04:42:00,72.5,72.5,30.00,NW,313,0.0,0.0,100,0.00,,,0.00,WUHU216DAVISWMX,2013-07-01 08:42:00,
2013-07-01 04:47:00,72.3,72.3,30.00,NW,313,0.0,0.0,100,0.00,,,0.00,WUHU216DAVISWMX,2013-07-01 08:47:00,
2013-07-01 04:52:00,72.6,72.6,30.00,NW,312,0.0,0.0,100,0.00,,,0.00,WUHU216DAVISWMX,2013-07-01 08:52:00,
2013-07-01 04:57:00,72.5,72.5,30.00,NW,313,0.0,0.0,100,0.00,,,0.00,WUHU216DAVISWMX,2013-07-01 08:57:00,
2013-07-01 05:02:00,72.5,72.5,30.00,NW,312,0.0,0.0,100,0.00,,,0.00,WUHU216DAVISWMX,2013-07-01 09:02:00,
2013-07-01 05:07:00,72.5,72.5,30.01,NW,313,0.0,0.0,100,0.00,,,0.00,WUHU216DAVISWMX,2013-07-01 09:07:00,
2013-07-01 05:12:00,72.5,72.5,30.01,NW,313,0.0,0.0,100,0.00,,,0.00,WUHU216DAVISWMX,2013-07-01 09:12:00,
2013-07-01 05:17:00,72.4,72.4,30.01,NW,312,0.0,0.0,100,0.00,,,0.00,WUHU216DAVISWMX,2013-07-01 09:17:00,
2013-07-01 05:22:00,72.5,72.5,30.01,NW,313,0.0,0.0,100,0.00,,,0.00,WUHU216DAVISWMX,2013-07-01 09:22:00,
2013-07-01 05:27:00,72.5,72.5,30.01,NW,313,0.0,0.0,100,0.00,,,0.00,WUHU216DAVISWMX,2013-07-01 09:27:00,
2013-07-01 05:32:00,72.3,72.3,30.01,NW,313,0.0,0.0,100,0.00,,,0.00,WUHU216DAVISWMX,2013-07-01 09:32:00,
2013-07-01 05:37:00,72.4,72.4,30.01,NW,312,0.0,0.0,100,0.00,,,0.00,WUHU216DAVISWMX,2013-07-01 09:37:00,
2013-07-01 05:42:00,72.1,72.1,30.02,NW,312,0.0,0.0,100,0.00,,,0.00,WUHU216DAVISWMX,2013-07-01 09:42:00,
2013-07-01 05:47:00,72.1,72.1,30.02,NW,313,0.0,0.0,100,0.00,,,0.00,WUHU216DAVISWMX,2013-07-01 09:47:00,
2013-07-01 05:52:00,72.4,72.4,30.02,NW,313,0.0,0.0,100,0.00,,,0.00,WUHU216DAVISWMX,2013-07-01 09:52:00,
2013-07-01 05:57:00,72.2,72.2,30.02,NW,313,0.0,0.0,100,0.00,,,0.00,WUHU216DAVISWMX,2013-07-01 09:57:00,
2013-07-01 06:02:00,72.2,72.2,30.02,NW,312,0.0,0.0,100,0.00,,,0.00,WUHU216DAVISWMX,2013-07-01 10:02:00,
2013-07-01 06:07:00,72.4,72.4,30.02,NW,312,0.0,0.0,100,0.00,,,0.00,WUHU216DAVISWMX,2013-07-01 10:07:00,
2013-07-01 06:12:00,72.4,72.4,30.02,NW,313,0.0,0.0,100,0.00,,,0.00,WUHU216DAVISWMX,2013-07-01 10:12:00,
2013-07-01 06:17:00,72.3,72.3,30.02,NW,312,0.0,0.0,100,0.00,,,0.00,WUHU216DAVISWMX,2013-07-01 10:17:00,
2013-07-01 06:22:00,72.4,72.4,30.03,NW,312,0.0,0.0,100,0.00,,,0.00,WUHU216DAVISWMX,2013-07-01 10:22:00,
2013-07-01 06:27:00,72.4,72.4,30.03,NW,313,0.0,0.0,100,0.00,,,0.00,WUHU216DAVISWMX,2013-07-01 10:27:00,
2013-07-01 06:32:00,72.6,72.6,30.03,NW,313,0.0,0.0,100,0.00,,,0.00,WUHU216DAVISWMX,2013-07-01 10:32:00,
2013-07-01 06:37:00,73.0,73.0,30.03,NW,312,0.0,0.0,100,0.00,,,0.00,WUHU216DAVISWMX,2013-07-01 10:37:00,
2013-07-01 06:42:00,72.8,72.8,30.03,NW,312,0.0,0.0,100,0.00,,,0.00,WUHU216DAVISWMX,2013-07-01 10:42:00,
2013-07-01 06:47:00,73.1,73.1,30.03,NNW,345,0.0,0.0,100,0.00,,,0.00,WUHU216DAVISWMX,2013-07-01 10:47:00,
2013-07-01 06:52:00,73.2,73.2,30.03,NNW,345,0.0,1.0,100,0.00,,,0.00,WUHU216DAVISWMX,2013-07-01 10:52:00,
2013-07-01 06:57:00,73.3,73.3,30.03,NNW,345,0.0,1.0,100,0.00,,,0.00,WUHU216DAVISWMX,2013-07-01 10:57:00,
2013-07-01 07:02:00,73.3,73.3,30.04,NNW,345,0.0,0.0,100,0.00,,,0.00,WUHU216DAVISWMX,2013-07-01 11:02:00,
2013-07-01 07:07:00,73.2,73.2,30.04,NNW,345,0.0,0.0,100,0.00,,,0.00,WUHU216DAVISWMX,2013-07-01 11:07:00,
2013-07-01 07:12:00,73.2,73.2,30.04,NNW,345,0.0,0.0,100,0.00,,,0.00,WUHU216DAVISWMX,2013-07-01 11:12:00,
2013-07-01 07:17:00,73.4,73.4,30.04,NNW,345,0.0,0.0,100,0.00,,,0.00,WUHU216DAVISWMX,2013-07-01 11:17:00,
2013-07-01 07:22:00,73.5,73.5,30.04,NNW,345,0.0,0.0,100,0.00,,,0.00,WUHU216DAVISWMX,2013-07-01 11:22:00,
2013-07-01 07:32:00,73.8,73.8,30.04,NNW,345,0.0,0.0,100,0.00,,,0.00,WUHU216DAVISWMX,2013-07-01 11:32:00,
2013-07-01 07:37:00,73.8,73.8,30.04,NNW,345,0.0,0.0,100,0.00,,,0.00,WUHU216DAVISWMX,2013-07-01 11:37:00,
2013-07-01 07:42:00,74.1,74.1,30.04,NNW,345,0.0,0.0,100,0.00,,,0.00,WUHU216DAVISWMX,2013-07-01 11:42:00,
2013-07-01 07:47:00,74.2,74.2,30.04,NNW,345,0.0,0.0,100,0.00,,,0.00,WUHU216DAVISWMX,2013-07-01 11:47:00,
2013-07-01 07:52:00,74.1,74.1,30.04,NNW,345,0.0,0.0,100,0.00,,,0.00,WUHU216DAVISWMX,2013-07-01 11:52:00,
2013-07-01 07:57:00,74.3,74.3,30.04,NNW,345,0.0,0.0,100,0.00,,,0.00,WUHU216DAVISWMX,2013-07-01 11:57:00,
2013-07-01 08:02:00,74.0,74.0,30.04,NNW,345,0.0,0.0,100,0.00,,,0.00,WUHU216DAVISWMX,2013-07-01 12:02:00,
2013-07-01 08:07:00,74.1,74.1,30.04,NNW,345,0.0,0.0,100,0.00,,,0.00,WUHU216DAVISWMX,2013-07-01 12:07:00,
2013-07-01 08:12:00,74.3,74.3,30.05,NNW,345,0.0,0.0,100,0.00,,,0.00,WUHU216DAVISWMX,2013-07-01 12:12:00,
2013-07-01 08:17:00,74.0,74.0,30.05,NNW,345,0.0,0.0,100,0.00,,,0.00,WUHU216DAVISWMX,2013-07-01 12:17:00,
2013-07-01 08:22:00,74.1,74.1,30.05,NNW,345,0.0,0.0,100,0.00,,,0.00,WUHU216DAVISWMX,2013-07-01 12:22:00,
2013-07-01 08:27:00,74.2,74.2,30.05,NNW,345,0.0,0.0,100,0.00,,,0.00,WUHU216DAVISWMX,2013-07-01 12:27:00,
2013-07-01 08:32:00,74.3,74.3,30.05,NNW,345,0.0,0.0,100,0.00,,,0.00,WUHU216DAVISWMX,2013-07-01 12:32:00,
2013-07-01 08:37:00,74.3,74.3,30.05,NNW,345,0.0,0.0,100,0.00,,,0.00,WUHU216DAVISWMX,2013-07-01 12:37:00,
2013-07-01 08:43:00,74.3,74.3,30.05,NNW,345,0.0,1.0,100,0.00,,,0.00,WUHU216DAVISWMX,2013-07-01 12:43:00,
2013-07-01 08:48:00,74.5,74.5,30.05,NNW,345,0.0,1.0,100,0.00,,,0.00,WUHU216DAVISWMX,2013-07-01 12:48:00,
2013-07-01 08:53:00,74.7,74.7,30.05,NNW,345,0.0,0.0,100,0.00,,,0.00,WUHU216DAVISWMX,2013-07-01 12:53:00,
2013-07-01 08:58:00,74.7,74.7,30.05,NNW,345,0.0,0.0,100,0.00,,,0.00,WUHU216DAVISWMX,2013-07-01 12:58:00,
2013-07-01 09:03:00,74.8,74.8,30.05,NNW,345,0.0,0.0,100,0.00,,,0.00,WUHU216DAVISWMX,2013-07-01 13:03:00,
2013-07-01 09:08:00,74.9,74.9,30.05,NNW,345,0.0,0.0,100,0.00,,,0.00,WUHU216DAVISWMX,2013-07-01 13:08:00,
2013-07-01 09:13:00,75.0,75.0,30.05,NNW,346,0.0,0.0,100,0.00,,,0.00,WUHU216DAVISWMX,2013-07-01 13:13:00,
2013-07-01 09:18:00,75.3,75.3,30.05,NNW,346,0.0,0.0,100,0.00,,,0.00,WUHU216DAVISWMX,2013-07-01 13:18:00,
2013-07-01 09:23:00,75.3,75.3,30.05,NNW,346,0.0,1.0,100,0.00,,,0.00,WUHU216DAVISWMX,2013-07-01 13:23:00,
2013-07-01 09:28:00,75.5,75.2,30.05,NNW,346,0.0,1.0,99,0.00,,,0.00,WUHU216DAVISWMX,2013-07-01 13:28:00,
2013-07-01 09:33:00,75.8,75.2,30.05,North,356,0.0,0.0,98,0.00,,,0.00,WUHU216DAVISWMX,2013-07-01 13:33:00,
2013-07-01 09:38:00,75.8,75.5,30.05,North,356,0.0,0.0,99,0.00,,,0.00,WUHU216DAVISWMX,2013-07-01 13:38:00,
2013-07-01 09:43:00,76.1,75.8,30.05,NW,309,0.0,2.0,99,0.00,,,0.00,WUHU216DAVISWMX,2013-07-01 13:43:00,
2013-07-01 09:48:00,75.9,75.3,30.05,NW,309,0.0,2.0,98,0.00,,,0.00,WUHU216DAVISWMX,2013-07-01 13:48:00,
2013-07-01 09:53:00,76.1,75.5,30.05,SW,214,1.0,2.0,98,0.00,,,0.00,WUHU216DAVISWMX,2013-07-01 13:53:00,
2013-07-01 09:58:00,76.1,75.8,30.05,SW,214,0.0,2.0,99,0.00,,,0.00,WUHU216DAVISWMX,2013-07-01 13:58:00,
2013-07-01 10:03:00,76.0,75.4,30.05,SW,214,0.0,2.0,98,0.00,,,0.00,WUHU216DAVISWMX,2013-07-01 14:03:00,
2013-07-01 10:08:00,76.2,75.6,30.05,SW,214,0.0,1.0,98,0.00,,,0.00,WUHU216DAVISWMX,2013-07-01 14:08:00,
2013-07-01 10:13:00,76.2,75.6,30.05,SW,214,0.0,2.0,98,0.00,,,0.00,WUHU216DAVISWMX,2013-07-01 14:13:00,
2013-07-01 10:18:00,76.1,75.5,30.05,SW,214,0.0,2.0,98,0.00,,,0.00,WUHU216DAVISWMX,2013-07-01 14:18:00,
2013-07-01 10:23:00,76.5,75.9,30.05,SW,214,0.0,1.0,98,0.00,,,0.00,WUHU216DAVISWMX,2013-07-01 14:23:00,
2013-07-01 10:28:00,76.5,75.6,30.05,SW,214,0.0,0.0,97,0.00,,,0.00,WUHU216DAVISWMX,2013-07-01 14:28:00,
2013-07-01 10:33:00,76.4,75.8,30.05,SW,214,0.0,0.0,98,0.00,,,0.00,WUHU216DAVISWMX,2013-07-01 14:33:00,
2013-07-01 10:38:00,76.6,75.7,30.06,SW,214,0.0,1.0,97,0.00,,,0.00,WUHU216DAVISWMX,2013-07-01 14:38:00,
2013-07-01 10:43:00,76.4,75.8,30.05,SW,214,0.0,1.0,98,0.00,,,0.00,WUHU216DAVISWMX,2013-07-01 14:43:00,
2013-07-01 10:48:00,76.4,75.8,30.05,SW,214,0.0,0.0,98,0.00,,,0.00,WUHU216DAVISWMX,2013-07-01 14:48:00,
2013-07-01 10:53:00,76.5,75.9,30.06,SW,214,0.0,0.0,98,0.00,,,0.00,WUHU216DAVISWMX,2013-07-01 14:53:00,
2013-07-01 10:58:00,76.7,75.8,30.06,SW,214,0.0,0.0,97,0.00,,,0.00,WUHU216DAVISWMX,2013-07-01 14:58:00,
2013-07-01 11:03:00,76.7,75.8,30.06,SW,214,0.0,0.0,97,0.00,,,0.00,WUHU216DAVISWMX,2013-07-01 15:03:00,
2013-07-01 11:08:00,77.3,76.4,30.06,SE,128,0.0,2.0,97,0.00,,,0.00,WUHU216DAVISWMX,2013-07-01 15:08:00,
2013-07-01 11:13:00,77.4,76.5,30.06,SE,128,0.0,2.0,97,0.00,,,0.00,WUHU216DAVISWMX,2013-07-01 15:13:00,
2013-07-01 11:18:00,77.8,76.9,30.06,SE,128,0.0,0.0,97,0.00,,,0.00,WUHU216DAVISWMX,2013-07-01 15:18:00,
2013-07-01 11:23:00,78.1,76.8,30.06,SE,128,1.0,1.0,96,0.00,,,0.00,WUHU216DAVISWMX,2013-07-01 15:23:00,
2013-07-01 11:28:00,77.9,76.0,30.06,SE,128,0.0,1.0,94,0.00,,,0.00,WUHU216DAVISWMX,2013-07-01 15:28:00,
2013-07-01 11:33:00,77.9,76.0,30.05,SE,128,0.0,1.0,94,0.00,,,0.00,WUHU216DAVISWMX,2013-07-01 15:33:00,
2013-07-01 11:38:00,77.8,76.2,30.06,SE,128,0.0,0.0,95,0.00,,,0.00,WUHU216DAVISWMX,2013-07-01 15:38:00,
2013-07-01 11:43:00,78.0,76.7,30.05,SE,128,0.0,0.0,96,0.00,,,0.00,WUHU216DAVISWMX,2013-07-01 15:43:00,
2013-07-01 11:48:00,77.7,76.1,30.05,SE,128,0.0,0.0,95,0.00,,,0.00,WUHU216DAVISWMX,2013-07-01 15:48:00,
2013-07-01 11:53:00,78.2,76.6,30.05,SE,128,0.0,0.0,95,0.00,,,0.00,WUHU216DAVISWMX,2013-07-01 15:53:00,
2013-07-01 11:58:00,78.7,77.1,30.05,SE,128,0.0,0.0,95,0.00,,,0.00,WUHU216DAVISWMX,2013-07-01 15:58:00,
2013-07-01 12:03:00,78.6,76.7,30.05,SE,128,0.0,0.0,94,0.00,,,0.00,WUHU216DAVISWMX,2013-07-01 16:03:00,
2013-07-01 12:08:00,78.3,76.7,30.05,NW,321,1.0,4.0,95,0.00,,,0.00,WUHU216DAVISWMX,2013-07-01 16:08:00,
2013-07-01 12:13:00,77.8,76.5,30.05,NW,321,1.0,4.0,96,0.00,,,0.00,WUHU216DAVISWMX,2013-07-01 16:13:00,
2013-07-01 12:18:00,77.5,76.6,30.04,NW,321,0.0,3.0,97,0.01,,,0.01,WUHU216DAVISWMX,2013-07-01 16:18:00,
2013-07-01 12:23:00,77.3,77.0,30.05,NW,321,1.0,1.0,99,0.02,,,0.02,WUHU216DAVISWMX,2013-07-01 16:23:00,
2013-07-01 12:28:00,76.8,76.2,30.05,NW,321,0.0,3.0,98,0.02,,,0.02,WUHU216DAVISWMX,2013-07-01 16:28:00,
2013-07-01 12:33:00,76.5,76.2,30.05,NW,321,0.0,3.0,99,0.02,,,0.02,WUHU216DAVISWMX,2013-07-01 16:33:00,
2013-07-01 12:38:00,76.4,76.1,30.05,NW,321,0.0,2.0,99,0.06,,,0.06,WUHU216DAVISWMX,2013-07-01 16:38:00,
2013-07-01 12:43:00,75.9,75.9,30.05,NW,321,1.0,3.0,100,0.20,,,0.20,WUHU216DAVISWMX,2013-07-01 16:43:00,
2013-07-01 12:48:00,75.7,75.7,30.06,NW,321,0.0,3.0,100,0.32,,,0.32,WUHU216DAVISWMX,2013-07-01 16:48:00,
2013-07-01 12:53:00,75.2,75.2,30.06,NW,323,0.0,1.0,100,0.35,,,0.35,WUHU216DAVISWMX,2013-07-01 16:53:00,
2013-07-01 12:58:00,75.0,75.0,30.07,NW,323,0.0,1.0,100,0.36,,,0.36,WUHU216DAVISWMX,2013-07-01 16:58:00,
2013-07-01 13:03:00,75.1,75.1,30.07,NW,323,0.0,1.0,100,0.36,,,0.36,WUHU216DAVISWMX,2013-07-01 17:03:00,
2013-07-01 13:08:00,75.1,75.1,30.06,NW,323,0.0,0.0,100,0.36,,,0.36,WUHU216DAVISWMX,2013-07-01 17:08:00,
2013-07-01 13:13:00,74.9,74.9,30.06,NW,323,0.0,1.0,100,0.37,,,0.37,WUHU216DAVISWMX,2013-07-01 17:13:00,
2013-07-01 13:18:00,74.4,74.4,30.06,NW,323,0.0,1.0,100,0.36,,,0.38,WUHU216DAVISWMX,2013-07-01 17:18:00,
2013-07-01 13:23:00,74.6,74.6,30.07,NW,323,0.0,0.0,100,0.38,,,0.40,WUHU216DAVISWMX,2013-07-01 17:23:00,
2013-07-01 13:28:00,74.4,74.4,30.06,NW,323,0.0,0.0,100,0.39,,,0.41,WUHU216DAVISWMX,2013-07-01 17:28:00,
2013-07-01 13:33:00,74.3,74.3,30.06,NW,323,0.0,0.0,100,0.40,,,0.42,WUHU216DAVISWMX,2013-07-01 17:33:00,
2013-07-01 13:38:00,74.2,74.2,30.06,NW,323,0.0,0.0,100,0.35,,,0.42,WUHU216DAVISWMX,2013-07-01 17:38:00,
2013-07-01 13:43:00,73.9,73.9,30.06,NW,323,0.0,0.0,100,0.21,,,0.44,WUHU216DAVISWMX,2013-07-01 17:43:00,
2013-07-01 13:48:00,73.9,73.9,30.06,NW,323,1.0,1.0,100,0.13,,,0.45,WUHU216DAVISWMX,2013-07-01 17:48:00,
2013-07-01 13:53:00,73.9,73.9,30.05,NW,323,0.0,1.0,100,0.11,,,0.46,WUHU216DAVISWMX,2013-07-01 17:53:00,
2013-07-01 13:58:00,73.9,73.9,30.05,NW,323,0.0,1.0,100,0.14,,,0.50,WUHU216DAVISWMX,2013-07-01 17:58:00,
2013-07-01 14:03:00,73.6,73.6,30.05,NW,323,0.0,2.0,100,0.20,,,0.56,WUHU216DAVISWMX,2013-07-01 18:03:00,
2013-07-01 14:08:00,73.8,73.8,30.06,NW,323,0.0,2.0,100,0.42,,,0.78,WUHU216DAVISWMX,2013-07-01 18:08:00,
2013-07-01 14:13:00,73.8,73.8,30.05,NW,323,0.0,1.0,100,0.47,,,0.84,WUHU216DAVISWMX,2013-07-01 18:13:00,
2013-07-01 14:19:00,73.5,73.5,30.06,NW,323,0.0,0.0,100,0.48,,,0.86,WUHU216DAVISWMX,2013-07-01 18:19:00,
2013-07-01 14:24:00,73.5,73.5,30.06,NW,323,0.0,0.0,100,0.47,,,0.87,WUHU216DAVISWMX,2013-07-01 18:24:00,
2013-07-01 14:29:00,73.9,73.9,30.06,NW,323,0.0,0.0,100,0.47,,,0.88,WUHU216DAVISWMX,2013-07-01 18:29:00,
2013-07-01 14:34:00,73.7,73.7,30.07,NW,323,1.0,1.0,100,0.48,,,0.90,WUHU216DAVISWMX,2013-07-01 18:34:00,
2013-07-01 14:39:00,73.5,73.5,30.07,NW,323,0.0,1.0,100,0.54,,,0.96,WUHU216DAVISWMX,2013-07-01 18:39:00,
2013-07-01 14:44:00,73.7,73.7,30.07,NW,323,0.0,1.0,100,0.56,,,1.00,WUHU216DAVISWMX,2013-07-01 18:44:00,
2013-07-01 14:49:00,73.8,73.8,30.07,NW,323,0.0,0.0,100,0.57,,,1.02,WUHU216DAVISWMX,2013-07-01 18:49:00,
2013-07-01 14:54:00,73.9,73.9,30.07,NW,323,0.0,0.0,100,0.59,,,1.05,WUHU216DAVISWMX,2013-07-01 18:54:00,
2013-07-01 14:59:00,73.8,73.8,30.06,NW,323,0.0,0.0,100,0.55,,,1.05,WUHU216DAVISWMX,2013-07-01 18:59:00,
2013-07-01 15:04:00,73.8,73.8,30.06,NW,323,0.0,0.0,100,0.49,,,1.06,WUHU216DAVISWMX,2013-07-01 19:04:00,
2013-07-01 15:09:00,73.9,73.9,30.06,NW,323,0.0,0.0,100,0.29,,,1.07,WUHU216DAVISWMX,2013-07-01 19:09:00,
2013-07-01 15:14:00,73.6,73.6,30.06,NW,323,0.0,0.0,100,0.23,,,1.08,WUHU216DAVISWMX,2013-07-01 19:14:00,
2013-07-01 15:19:00,73.9,73.9,30.06,NW,323,0.0,0.0,100,0.22,,,1.08,WUHU216DAVISWMX,2013-07-01 19:19:00,
2013-07-01 15:24:00,73.8,73.8,30.06,NW,323,0.0,0.0,100,0.21,,,1.09,WUHU216DAVISWMX,2013-07-01 19:24:00,
2013-07-01 15:29:00,73.7,73.7,30.06,NW,323,0.0,0.0,100,0.21,,,1.09,WUHU216DAVISWMX,2013-07-01 19:29:00,
2013-07-01 15:34:00,73.7,73.7,30.06,NW,323,0.0,0.0,100,0.19,,,1.09,WUHU216DAVISWMX,2013-07-01 19:34:00,
2013-07-01 15:39:00,73.9,73.9,30.06,NW,323,0.0,0.0,100,0.13,,,1.10,WUHU216DAVISWMX,2013-07-01 19:39:00,
2013-07-01 15:44:00,74.0,74.0,30.06,NW,323,0.0,0.0,100,0.10,,,1.10,WUHU216DAVISWMX,2013-07-01 19:44:00,
2013-07-01 15:49:00,73.9,73.9,30.06,NW,323,0.0,0.0,100,0.07,,,1.10,WUHU216DAVISWMX,2013-07-01 19:49:00,
2013-07-01 15:54:00,74.3,74.3,30.06,NW,323,0.0,0.0,100,0.06,,,1.11,WUHU216DAVISWMX,2013-07-01 19:54:00,
2013-07-01 15:59:00,74.4,74.4,30.06,NW,323,0.0,0.0,100,0.06,,,1.11,WUHU216DAVISWMX,2013-07-01 19:59:00,
2013-07-01 16:04:00,74.2,74.2,30.06,NW,323,0.0,2.0,100,0.05,,,1.11,WUHU216DAVISWMX,2013-07-01 20:04:00,
2013-07-01 16:09:00,74.1,74.1,30.06,NW,323,0.0,2.0,100,0.04,,,1.11,WUHU216DAVISWMX,2013-07-01 20:09:00,
2013-07-01 16:14:00,74.4,74.4,30.06,NW,323,0.0,0.0,100,0.03,,,1.11,WUHU216DAVISWMX,2013-07-01 20:14:00,
2013-07-01 16:19:00,74.4,74.4,30.06,NW,323,0.0,0.0,100,0.03,,,1.11,WUHU216DAVISWMX,2013-07-01 20:19:00,
2013-07-01 16:24:00,74.6,74.6,30.06,NW,323,0.0,1.0,100,0.02,,,1.11,WUHU216DAVISWMX,2013-07-01 20:24:00,
2013-07-01 16:29:00,74.7,74.7,30.06,NW,323,0.0,1.0,100,0.02,,,1.11,WUHU216DAVISWMX,2013-07-01 20:29:00,
2013-07-01 16:34:00,74.8,74.8,30.06,NW,323,0.0,0.0,100,0.02,,,1.11,WUHU216DAVISWMX,2013-07-01 20:34:00,
2013-07-01 16:39:00,74.9,74.9,30.06,NW,323,0.0,0.0,100,0.01,,,1.11,WUHU216DAVISWMX,2013-07-01 20:39:00,
2013-07-01 16:44:00,74.8,74.8,30.06,NW,323,0.0,0.0,100,0.01,,,1.11,WUHU216DAVISWMX,2013-07-01 20:44:00,
2013-07-01 16:49:00,74.6,74.6,30.07,NW,323,0.0,0.0,100,0.01,,,1.11,WUHU216DAVISWMX,2013-07-01 20:49:00,
2013-07-01 16:54:00,74.9,74.9,30.06,NW,323,0.0,0.0,100,0.01,,,1.12,WUHU216DAVISWMX,2013-07-01 20:54:00,
2013-07-01 16:59:00,75.0,75.0,30.06,NW,323,0.0,0.0,100,0.01,,,1.12,WUHU216DAVISWMX,2013-07-01 20:59:00,
2013-07-01 17:04:00,74.7,74.7,30.06,NW,323,0.0,0.0,100,0.01,,,1.12,WUHU216DAVISWMX,2013-07-01 21:04:00,
2013-07-01 17:09:00,74.8,74.8,30.06,NW,323,0.0,0.0,100,0.01,,,1.12,WUHU216DAVISWMX,2013-07-01 21:09:00,
2013-07-01 17:14:00,74.7,74.7,30.06,NW,323,0.0,0.0,100,0.01,,,1.12,WUHU216DAVISWMX,2013-07-01 21:14:00,
2013-07-01 17:19:00,75.1,75.1,30.06,NW,323,0.0,0.0,100,0.01,,,1.12,WUHU216DAVISWMX,2013-07-01 21:19:00,
2013-07-01 17:24:00,74.8,74.8,30.06,NW,323,0.0,0.0,100,0.01,,,1.12,WUHU216DAVISWMX,2013-07-01 21:24:00,
2013-07-01 17:29:00,75.0,75.0,30.07,NW,323,0.0,0.0,100,0.01,,,1.12,WUHU216DAVISWMX,2013-07-01 21:29:00,
2013-07-01 17:34:00,74.9,74.9,30.06,NW,323,0.0,0.0,100,0.01,,,1.12,WUHU216DAVISWMX,2013-07-01 21:34:00,
2013-07-01 17:39:00,74.6,74.6,30.07,NW,323,0.0,0.0,100,0.01,,,1.12,WUHU216DAVISWMX,2013-07-01 21:39:00,
2013-07-01 17:44:00,75.0,75.0,30.06,NW,323,0.0,0.0,100,0.01,,,1.12,WUHU216DAVISWMX,2013-07-01 21:44:00,
2013-07-01 17:49:00,75.1,75.1,30.06,NW,323,0.0,0.0,100,0.01,,,1.12,WUHU216DAVISWMX,2013-07-01 21:49:00,
2013-07-01 17:54:00,74.7,74.7,30.06,NW,323,0.0,0.0,100,0.00,,,1.12,WUHU216DAVISWMX,2013-07-01 21:54:00,
2013-07-01 17:59:00,74.8,74.8,30.06,NW,323,0.0,0.0,100,0.00,,,1.12,WUHU216DAVISWMX,2013-07-01 21:59:00,
2013-07-01 18:04:00,75.0,75.0,30.06,NW,323,0.0,0.0,100,0.00,,,1.12,WUHU216DAVISWMX,2013-07-01 22:04:00,
2013-07-01 18:09:00,75.1,75.1,30.06,NW,323,0.0,0.0,100,0.00,,,1.12,WUHU216DAVISWMX,2013-07-01 22:09:00,
2013-07-01 18:14:00,74.7,74.7,30.07,NW,323,0.0,1.0,100,0.00,,,1.12,WUHU216DAVISWMX,2013-07-01 22:14:00,
2013-07-01 18:19:00,75.0,75.0,30.06,ESE,114,0.0,2.0,100,0.00,,,1.12,WUHU216DAVISWMX,2013-07-01 22:19:00,
2013-07-01 18:24:00,74.7,74.7,30.06,ESE,113,0.0,2.0,100,0.00,,,1.12,WUHU216DAVISWMX,2013-07-01 22:24:00,
2013-07-01 18:29:00,74.6,74.6,30.07,ESE,114,0.0,0.0,100,0.00,,,1.12,WUHU216DAVISWMX,2013-07-01 22:29:00,
2013-07-01 18:34:00,74.6,74.6,30.07,ESE,114,0.0,0.0,100,0.00,,,1.12,WUHU216DAVISWMX,2013-07-01 22:34:00,
2013-07-01 18:39:00,74.6,74.6,30.07,ESE,113,0.0,0.0,100,0.00,,,1.12,WUHU216DAVISWMX,2013-07-01 22:39:00,
2013-07-01 18:44:00,74.7,74.7,30.07,ESE,113,0.0,0.0,100,0.00,,,1.12,WUHU216DAVISWMX,2013-07-01 22:44:00,
2013-07-01 18:49:00,74.7,74.7,30.07,ESE,114,0.0,0.0,100,0.00,,,1.12,WUHU216DAVISWMX,2013-07-01 22:49:00,
2013-07-01 18:54:00,74.4,74.4,30.07,ESE,114,0.0,0.0,100,0.00,,,1.12,WUHU216DAVISWMX,2013-07-01 22:54:00,
2013-07-01 18:59:00,74.6,74.6,30.08,ESE,113,0.0,0.0,100,0.00,,,1.12,WUHU216DAVISWMX,2013-07-01 22:59:00,
2013-07-01 19:04:00,74.2,74.2,30.08,East,90,0.0,0.0,100,0.00,,,1.12,WUHU216DAVISWMX,2013-07-01 23:04:00,
2013-07-01 19:09:00,74.3,74.3,30.08,East,91,0.0,0.0,100,0.00,,,1.12,WUHU216DAVISWMX,2013-07-01 23:09:00,
2013-07-01 19:15:00,74.6,74.6,30.08,East,91,0.0,0.0,100,0.00,,,1.12,WUHU216DAVISWMX,2013-07-01 23:15:00,
2013-07-01 19:20:00,74.6,74.6,30.08,East,90,0.0,0.0,100,0.00,,,1.12,WUHU216DAVISWMX,2013-07-01 23:20:00,
2013-07-01 19:25:00,74.2,74.2,30.08,East,90,0.0,0.0,100,0.02,,,1.14,WUHU216DAVISWMX,2013-07-01 23:25:00,
2013-07-01 19:30:00,74.4,74.4,30.08,East,90,0.0,0.0,100,0.02,,,1.14,WUHU216DAVISWMX,2013-07-01 23:30:00,
2013-07-01 19:35:00,74.4,74.4,30.08,East,90,0.0,0.0,100,0.02,,,1.14,WUHU216DAVISWMX,2013-07-01 23:35:00,
2013-07-01 19:40:00,73.9,73.9,30.08,East,90,0.0,0.0,100,0.02,,,1.14,WUHU216DAVISWMX,2013-07-01 23:40:00,
2013-07-01 19:45:00,74.0,74.0,30.08,East,90,0.0,0.0,100,0.02,,,1.14,WUHU216DAVISWMX,2013-07-01 23:45:00,
2013-07-01 19:50:00,73.9,73.9,30.08,East,90,0.0,0.0,100,0.02,,,1.14,WUHU216DAVISWMX,2013-07-01 23:50:00,
2013-07-01 19:55:00,74.1,74.1,30.08,East,90,0.0,0.0,100,0.02,,,1.14,WUHU216DAVISWMX,2013-07-01 23:55:00,
2013-07-01 20:00:00,74.3,74.3,30.08,East,90,0.0,0.0,100,0.02,,,1.14,WUHU216DAVISWMX,2013-07-02 00:00:00,
2013-07-01 20:05:00,74.1,74.1,30.08,East,91,0.0,0.0,100,0.02,,,1.14,WUHU216DAVISWMX,2013-07-02 00:05:00,
2013-07-01 20:10:00,74.3,74.3,30.08,East,90,0.0,0.0,100,0.02,,,1.14,WUHU216DAVISWMX,2013-07-02 00:10:00,
2013-07-01 20:15:00,73.8,73.8,30.09,East,90,0.0,0.0,100,0.06,,,1.18,WUHU216DAVISWMX,2013-07-02 00:15:00,
2013-07-01 20:20:00,73.9,73.9,30.09,East,90,0.0,2.0,100,0.06,,,1.18,WUHU216DAVISWMX,2013-07-02 00:20:00,
2013-07-01 20:25:00,73.9,73.9,30.09,East,90,0.0,2.0,100,0.04,,,1.18,WUHU216DAVISWMX,2013-07-02 00:25:00,
2013-07-01 20:30:00,73.8,73.8,30.10,East,90,0.0,0.0,100,0.05,,,1.19,WUHU216DAVISWMX,2013-07-02 00:30:00,
2013-07-01 20:35:00,73.8,73.8,30.09,East,90,0.0,0.0,100,0.17,,,1.31,WUHU216DAVISWMX,2013-07-02 00:35:00,
2013-07-01 20:40:00,73.7,73.7,30.09,East,91,0.0,0.0,100,0.21,,,1.35,WUHU216DAVISWMX,2013-07-02 00:40:00,
2013-07-01 20:45:00,73.7,73.7,30.09,East,91,0.0,0.0,100,0.22,,,1.36,WUHU216DAVISWMX,2013-07-02 00:45:00,
2013-07-01 20:50:00,74.0,74.0,30.10,East,90,0.0,0.0,100,0.22,,,1.36,WUHU216DAVISWMX,2013-07-02 00:50:00,
2013-07-01 20:55:00,73.9,73.9,30.10,East,90,0.0,0.0,100,0.22,,,1.36,WUHU216DAVISWMX,2013-07-02 00:55:00,
2013-07-01 21:00:00,73.8,73.8,30.09,East,90,0.0,0.0,100,0.22,,,1.36,WUHU216DAVISWMX,2013-07-02 01:00:00,
2013-07-01 21:05:00,73.7,73.7,30.10,East,90,0.0,0.0,100,0.22,,,1.36,WUHU216DAVISWMX,2013-07-02 01:05:00,
2013-07-01 21:10:00,73.8,73.8,30.10,East,90,0.0,0.0,100,0.22,,,1.36,WUHU216DAVISWMX,2013-07-02 01:10:00,
2013-07-01 21:15:00,73.6,73.6,30.10,East,90,0.0,1.0,100,0.18,,,1.36,WUHU216DAVISWMX,2013-07-02 01:15:00,
2013-07-01 21:20:00,73.6,73.6,30.10,East,91,0.0,1.0,100,0.18,,,1.36,WUHU216DAVISWMX,2013-07-02 01:20:00,
2013-07-01 21:25:00,73.9,73.9,30.10,East,90,0.0,1.0,100,0.18,,,1.36,WUHU216DAVISWMX,2013-07-02 01:25:00,
2013-07-01 21:30:00,73.7,73.7,30.11,East,90,0.0,1.0,100,0.16,,,1.36,WUHU216DAVISWMX,2013-07-02 01:30:00,
2013-07-01 21:35:00,73.9,73.9,30.11,East,91,0.0,0.0,100,0.04,,,1.36,WUHU216DAVISWMX,2013-07-02 01:35:00,
2013-07-01 21:40:00,73.7,73.7,30.11,East,91,0.0,0.0,100,0.01,,,1.36,WUHU216DAVISWMX,2013-07-02 01:40:00,
2013-07-01 21:45:00,73.5,73.5,30.11,East,90,0.0,0.0,100,0.00,,,1.36,WUHU216DAVISWMX,2013-07-02 01:45:00,
2013-07-01 21:50:00,73.6,73.6,30.11,East,91,0.0,0.0,100,0.00,,,1.36,WUHU216DAVISWMX,2013-07-02 01:50:00,
2013-07-01 21:55:00,73.8,73.8,30.11,East,90,1.0,1.0,100,0.00,,,1.36,WUHU216DAVISWMX,2013-07-02 01:55:00,
2013-07-01 22:00:00,73.5,73.5,30.11,SSW,201,0.0,2.0,100,0.00,,,1.36,WUHU216DAVISWMX,2013-07-02 02:00:00,
2013-07-01 22:05:00,73.8,73.8,30.12,SSW,201,0.0,2.0,100,0.00,,,1.36,WUHU216DAVISWMX,2013-07-02 02:05:00,
2013-07-01 22:10:00,73.7,73.7,30.12,SSW,201,0.0,0.0,100,0.00,,,1.36,WUHU216DAVISWMX,2013-07-02 02:10:00,
2013-07-01 22:15:00,73.5,73.5,30.12,SSW,202,0.0,0.0,100,0.00,,,1.36,WUHU216DAVISWMX,2013-07-02 02:15:00,
2013-07-01 22:20:00,73.7,73.7,30.12,SSW,201,0.0,0.0,100,0.00,,,1.36,WUHU216DAVISWMX,2013-07-02 02:20:00,
2013-07-01 22:25:00,73.4,73.4,30.12,SSW,201,0.0,0.0,100,0.00,,,1.36,WUHU216DAVISWMX,2013-07-02 02:25:00,
2013-07-01 22:30:00,73.6,73.6,30.12,SSW,201,0.0,0.0,100,0.00,,,1.36,WUHU216DAVISWMX,2013-07-02 02:30:00,
2013-07-01 22:35:00,73.6,73.6,30.12,SSW,202,0.0,0.0,100,0.00,,,1.36,WUHU216DAVISWMX,2013-07-02 02:35:00,
2013-07-01 22:40:00,73.4,73.4,30.12,SSW,201,0.0,0.0,100,0.00,,,1.36,WUHU216DAVISWMX,2013-07-02 02:40:00,
2013-07-01 22:45:00,73.3,73.3,30.12,SSW,201,0.0,0.0,100,0.00,,,1.36,WUHU216DAVISWMX,2013-07-02 02:45:00,
2013-07-01 22:50:00,73.5,73.5,30.12,SSW,201,0.0,0.0,100,0.00,,,1.36,WUHU216DAVISWMX,2013-07-02 02:50:00,
2013-07-01 22:55:00,73.2,73.2,30.12,SSW,201,0.0,0.0,100,0.00,,,1.36,WUHU216DAVISWMX,2013-07-02 02:55:00,
2013-07-01 23:00:00,73.5,73.5,30.12,SSW,201,0.0,0.0,100,0.00,,,1.36,WUHU216DAVISWMX,2013-07-02 03:00:00,
2013-07-01 23:05:00,73.5,73.5,30.12,SSW,201,0.0,0.0,100,0.00,,,1.36,WUHU216DAVISWMX,2013-07-02 03:05:00,
2013-07-01 23:10:00,73.3,73.3,30.12,SSW,201,0.0,0.0,100,0.00,,,1.36,WUHU216DAVISWMX,2013-07-02 03:10:00,
2013-07-01 23:15:00,73.3,73.3,30.12,SSW,201,0.0,0.0,100,0.00,,,1.36,WUHU216DAVISWMX,2013-07-02 03:15:00,
2013-07-01 23:20:00,73.2,73.2,30.12,SSW,202,0.0,0.0,100,0.00,,,1.36,WUHU216DAVISWMX,2013-07-02 03:20:00,
2013-07-01 23:25:00,73.4,73.4,30.11,SSW,201,0.0,0.0,100,0.00,,,1.36,WUHU216DAVISWMX,2013-07-02 03:25:00,
2013-07-01 23:30:00,73.1,73.1,30.11,SSW,201,0.0,0.0,100,0.00,,,1.36,WUHU216DAVISWMX,2013-07-02 03:30:00,
2013-07-01 23:35:00,73.4,73.4,30.11,SSW,201,0.0,0.0,100,0.00,,,1.36,WUHU216DAVISWMX,2013-07-02 03:35:00,
2013-07-01 23:40:00,73.1,73.1,30.12,SSW,202,0.0,0.0,100,0.00,,,1.36,WUHU216DAVISWMX,2013-07-02 03:40:00,
2013-07-01 23:45:00,73.1,73.1,30.12,SSW,201,0.0,0.0,100,0.00,,,1.36,WUHU216DAVISWMX,2013-07-02 03:45:00,
2013-07-01 23:50:00,73.3,73.3,30.12,SSW,202,0.0,0.0,100,0.00,,,1.36,WUHU216DAVISWMX,2013-07-02 03:50:00,
2013-07-01 23:55:00,73.2,73.2,30.12,SSW,202,0.0,0.0,100,0.00,,,1.36,WUHU216DAVISWMX,2013-07-02 03:55:00,